Weather History for PHBK - February, 2013

Change the Weather History Date:

Tuesday, February 5, 2013

  Actual Average Record
Temperature  
Mean Temperature 68 °F -  
Max Temperature 73 °F 80 °F 85 °F (1977)
Min Temperature 64 °F 62 °F 58 °F (1965)
Cooling Degree Days 4    
Growing Degree Days 18 (Base 50)    
Moisture  
Dew Point 64 °F    
Average Humidity 81    
Maximum Humidity 100    
Minimum Humidity 68    
Precipitation  
Precipitation 0.00 in - - ()
Sea Level Pressure  
Sea Level Pressure 30.09 in    
Wind  
Wind Speed 3 mph (East)    
Max Wind Speed 7 mph    
Max Gust Speed -    
Visibility 10 miles    
Events Rain    
Averages and records for this station are not official NWS values.
T = Trace of Precipitation, MM = Missing Value Source: NWS Daily Summary

Daily Weather History Graph

Daily Weather History Graph

Search for Another Location

Airport or City:

Trip Planner

Search our weather history database for the weather conditions in past years. The results will help you decide how hot, cold, wet, or windy it might be!

Date:

Astronomy

Feb. 05, 2013 Rise Set
Actual Time 7:15 AM HST 6:31 PM HST
Civil Twilight 6:52 AM HST 6:54 PM HST
Nautical Twilight 6:25 AM HST 7:20 PM HST
Astronomical Twilight 5:59 AM HST 7:47 PM HST
Moon 2:57 AM HST (2/5) 2:13 PM HST (2/5)
Length of Visible Light 12h 01m
Length of Day
11h 15m
Waning Crescent, 24% of the Moon is Illuminated
Feb 5
Waning Crescent
Feb 9
New
Feb 17
First Quarter
Feb 25
Full
Mar 4
Last Quarter

Hourly Weather History & Observations

Time (HST) Temp. Dew Point Humidity Pressure Visibility Wind Dir Wind Speed Gust Speed Precip Events Conditions
12:56 AM 70.0 °F 64.0 °F 81% 30.11 in 10.0 mi Calm Calm - N/A   Overcast
1:56 AM 69.1 °F 61.0 °F 75% 30.10 in 10.0 mi ENE 3.5 mph - N/A   Mostly Cloudy
2:56 AM 69.1 °F 64.9 °F 87% 30.08 in 10.0 mi SE 3.5 mph - N/A   Overcast
3:56 AM 66.9 °F 62.1 °F 84% 30.07 in 10.0 mi Calm Calm - N/A   Mostly Cloudy
4:56 AM 66.9 °F 64.0 °F 90% 30.07 in 10.0 mi SE 3.5 mph - N/A   Mostly Cloudy
5:56 AM 66.9 °F 62.1 °F 84% 30.07 in 10.0 mi ENE 3.5 mph - N/A   Mostly Cloudy
6:56 AM 64.9 °F 62.1 °F 90% 30.08 in 10.0 mi East 3.5 mph - N/A   Partly Cloudy
7:56 AM 66.9 °F 63.0 °F 87% 30.09 in 10.0 mi NE 5.8 mph - N/A   Mostly Cloudy
8:56 AM 73.0 °F 66.0 °F 79% 30.11 in 10.0 mi Calm Calm - N/A   Overcast
9:56 AM 73.9 °F - N/A% 30.13 in - SE 4.6 mph - N/A   Unknown
10:56 AM 73.9 °F 63.0 °F 68% 30.12 in 10.0 mi South 6.9 mph - N/A   Overcast
11:27 AM 73.4 °F 64.4 °F 73% 30.12 in 6.2 mi East 4.6 mph - 0.00 in Rain Light Rain
11:44 AM 71.6 °F 71.6 °F 100% 30.11 in 10.0 mi East 5.8 mph - 0.00 in Rain Light Rain
11:56 AM 73.0 °F 71.1 °F 93% 30.11 in 10.0 mi Calm Calm - 0.00 in   Overcast
12:56 PM 73.9 °F 66.0 °F 76% 30.08 in 10.0 mi WNW 4.6 mph - 0.00 in   Overcast
1:56 PM 73.9 °F 66.9 °F 79% 30.06 in 10.0 mi WNW 5.8 mph - N/A   Overcast
2:56 PM 73.0 °F 66.9 °F 81% 30.06 in 10.0 mi Calm Calm - 0.00 in   Overcast
3:56 PM 73.9 °F 63.0 °F 68% 30.05 in 10.0 mi NNE 5.8 mph - 0.00 in   Overcast
4:56 PM 73.9 °F 68.0 °F 82% 30.06 in 10.0 mi Calm Calm - N/A   Partly Cloudy
5:56 PM 73.9 °F 64.0 °F 71% 30.06 in 10.0 mi Calm Calm - N/A   Clear
6:56 PM 72.0 °F 66.0 °F 81% 30.07 in 10.0 mi Calm Calm - N/A   Mostly Cloudy
7:56 PM 70.0 °F 62.1 °F 76% 30.08 in 10.0 mi Calm Calm - N/A   Partly Cloudy
8:56 PM 66.9 °F 60.1 °F 79% 30.10 in 10.0 mi SE 3.5 mph - N/A   Clear
9:56 PM 66.0 °F 62.1 °F 87% 30.11 in 10.0 mi East 3.5 mph - N/A   Clear
10:56 PM 66.9 °F 60.1 °F 79% 30.11 in 10.0 mi ENE 4.6 mph - N/A   Clear
11:56 PM 64.9 °F 60.1 °F 84% 30.10 in 10.0 mi East 4.6 mph - N/A   Clear